User: anonymous   Login
Location: Mentone
(34.5413°N, 85.5351°W)
Time: 10:40:28
(UTC-06:00)
Language:

Centaur AC-72 - Orbit

View from above orbital plane
View from above orbital plane
View from above satellite
View from above satellite

Ground track
Ground track

The orbit data is extracted from the following two-line orbital elements,

1 21907U 92013B   15031.26705919 -.00000097  00000-0  00000+0 0  9900
2 21907 019.0805 187.6423 6935049 005.4891 351.2729 02.25607716188684
Epoch (UTC): 31 January 2015 06:24:33
Eccentricity: 0.6935049
inclination: 19.0805°
perigee height: 1148 km
apogee height: 35208 km
right ascension of ascending node: 187.6423°
argument of perigee: 5.4891°
revolutions per day: 2.25607716
mean anomaly at epoch: 351.2729°
orbit number at epoch: 18868

The dashed part of the orbit path shows where the satellite is in the earth's shadow,  

DLR